Regional Weather Roundup
Issued by NWS

Home | Current Version | Previous Version | Graphics & Text | Print | Product List | Glossary On
Versions: 1 2 3 4 5 6 7 8 9 10 11 12 13 14 15 16 17 18 19 20 21 22 23 24 25 26 27 28 29 30 31 32 33 34 35 36 37 38 39 40 41 42 43 44 45 46 47 48 49 50
000
ASUS43 KFSD 181210
RWRSD

WEATHER ROUNDUP FOR SOUTH DAKOTA
NATIONAL WEATHER SERVICE SIOUX FALLS SD
700 AM CDT SAT APR 18 2015

NOTE: "FAIR" INDICATES FEW OR NO CLOUDS BELOW 12,000 FEET WITH NO
SIGNIFICANT WEATHER AND/OR OBSTRUCTIONS TO VISIBILITY.


SDZ001>005-009-010-012>017-181300-
NORTHWEST AND NORTH CENTRAL SOUTH DAKOTA

CITY           SKY/WX    TMP DP  RH WIND       PRES   REMARKS
BUFFALO          N/A     43  34  70 W3        29.95F
FAITH            N/A     48  38  68 N9        30.01S
MOBRIDGE       CLOUDY    50  27  40 N5        29.99F
$$

SDZ012>016-024>037-041>051-057-063-072>074-181300-
SOUTHWEST AND SOUTH CENTRAL SOUTH DAKOTA

CITY           SKY/WX    TMP DP  RH WIND       PRES   REMARKS
RAPID CTY ARPT CLOUDY    47  45  93 N3        30.01S
PIERRE         CLOUDY    52  37  56 NE7       29.98S
CUSTER         LGT RAIN  41  39  93 NE9       30.01S
ELLSWORTH AFB  CLOUDY    47  47 100 SW2       30.00
PHILIP         CLOUDY    50  45  83 N10       29.97F
PINE RIDGE     LGT RAIN  47  44  90 NE14      29.96R
SPEARFISH      CLOUDY    46  41  81 CALM      30.02S
WINNER         CLOUDY    51  41  68 NE10      29.94F
$$

SDZ004>011-016>023-039-040-181300-
NORTHEAST SOUTH DAKOTA

CITY           SKY/WX    TMP DP  RH WIND       PRES   REMARKS
ABERDEEN       MOCLDY    42  26  53 N8        30.04F
WATERTOWN      MOCLDY    51  25  36 E10       30.03F
BROOKINGS      PTCLDY    52  23  32 NE8       30.04R
SISSETON         N/A     36  24  62 CALM      30.07F
$$

SDZ017-020-022-023-036>040-048>070-181300-
SOUTHEAST SOUTH DAKOTA

CITY           SKY/WX    TMP DP  RH WIND       PRES   REMARKS
SIOUX FALLS    LGT RAIN  54  32  43 SE7       30.01R
HURON          CLOUDY    50  27  40 E8        29.99F
CHAMBERLAIN    CLOUDY    53  35  50 N5        29.98F
MITCHELL       CLOUDY    56  26  31 E5        29.99R
YANKTON        CLOUDY    55  32  41 NE9       29.96S
$$

ABBREVIATIONS USED IN REMARKS
   TC - TEMPERATURE IN CELSIUS
  WCI - WIND CHILL INDEX
   HX - HEAT INDEX
  VSB - VISIBILITY



USA.gov is the U.S. government's official web portal to all federal, state and local government web resources and services.